Vorticity
-12 -16 39 -4 9 5 -0 5 5 -6 6 5 3 10 16 17 10 6 6 6 5 5 6 5 5 6 9 6 6 4 2 3 3 3 5 4 -0 5 0 1 1 4 5
15 28 -15 -19 2 2 0 4 2 6 3 10 4 11 11 8 12 9 9 2 7 5 5 6 5 5 4 2 1 2 2 2 3 3 -0 -1 2 5 7 10 1 6 10
4 14 -1 9 5 9 2 8 7 0 10 5 5 12 7 9 13 11 0 6 7 5 3 4 7 5 6 3 4 2 2 2 3 3 4 8 10 9 11 -4 8 5 12
22 55 37 6 10 -1 7 3 7 -7 8 7 5 11 4 14 12 10 9 5 4 5 3 2 4 1 2 -1 4 7 7 7 7 7 9 8 7 7 3 4 4 9 10
10 10 10 8 10 14 13 14 10 12 2 7 5 7 9 12 12 6 2 6 5 4 7 -1 2 4 4 6 7 7 6 6 10 11 7 7 9 7 1 3 6 9 4
-9 17 5 2 9 11 7 8 10 0 -0 2 6 6 6 17 7 7 3 3 2 1 -1 3 1 4 4 5 7 9 7 10 6 7 6 9 1 3 3 4 7 8 3
0 2 -3 -1 8 -10 5 1 11 6 8 4 8 7 6 14 7 5 10 3 0 -6 4 0 3 5 5 8 8 7 4 8 7 9 7 3 4 1 5 4 6 7 4
-0 21 -1 6 6 11 9 4 9 8 8 12 7 11 14 12 6 5 6 2 -2 3 1 2 3 6 7 4 7 6 9 8 3 6 14 8 3 3 5 6 9 8 7
5 12 8 4 10 5 -2 4 5 2 11 9 3 3 10 15 5 6 -3 7 5 -2 3 3 5 2 6 3 15 1 16 6 -0 11 8 2 -0 2 4 6 6 6 8
-1 -1 8 -6 7 7 9 10 3 6 21 9 18 19 11 4 16 11 13 2 2 3 2 2 -1 6 7 7 9 4 5 11 11 9 5 3 4 4 4 8 3 6 5
-5 12 30 -1 3 12 14 6 13 28 10 6 8 16 11 7 17 -4 1 2 5 3 1 8 0 9 -0 10 3 10 2 8 8 5 2 1 2 4 7 10 9 3 8
4 3 -4 16 5 9 -8 14 13 20 4 7 6 10 12 10 4 4 3 1 -0 1 -1 -5 3 3 9 9 -2 6 6 8 8 5 4 3 3 5 7 8 8 7 6
52 38 32 24 19 21 25 16 8 4 7 3 6 1 1 2 4 6 3 1 3 16 17 3 28 -13 10 4 10 7 9 7 7 4 3 3 4 4 2 9 12 7 7
10 9 9 6 14 16 11 9 8 9 4 5 2 8 -0 9 6 -1 -9 14 -6 14 12 22 17 33 -1 6 10 4 14 8 4 2 3 2 2 4 13 7 8 8 6
1 5 7 6 6 8 9 7 3 4 5 6 13 14 11 9 3 1 9 -39 19 16 16 9 4 -7 10 -1 13 10 9 7 3 3 3 5 7 12 5 6 7 8 9
10 6 5 8 11 8 6 5 7 9 7 7 7 6 5 3 -1 4 10 10 -8 -3 -4 6 10 1 10 5 9 11 6 4 4 3 1 0 2 3 10 10 8 9 8
-2 7 7 -1 14 -2 12 5 3 9 10 6 7 8 8 6 7 9 3 -10 38 2 13 11 -1 12 8 8 8 8 6 5 3 1 4 2 2 -1 15 12 11 9 4
2 15 7 14 18 11 14 5 5 6 -2 3 8 -3 9 17 -0 0 3 9 -10 20 -12 -1 8 5 4 13 7 7 6 3 5 5 2 3 3 -1 21 8 5 3 6
12 4 7 9 7 -3 17 30 4 4 18 11 -2 -18 21 -2 35 12 41 17 12 -1 -1 2 4 9 7 5 8 6 7 6 6 4 4 5 8 11 11 5 4 6 6
3 11 11 6 10 8 3 40 28 15 4 18 16 14 -1 22 -9 -6 3 8 4 11 4 0 6 5 4 6 7 6 6 4 5 4 6 6 7 17 1 4 4 9 8
-2 -7 -1 14 9 8 7 21 21 2 2 6 27 16 2 1 10 -11 -8 4 7 2 7 1 4 7 7 7 11 9 6 6 4 4 6 15 9 2 6 7 10 10 7
3 5 8 11 12 9 11 9 7 4 7 11 2 8 11 8 2 5 2 7 3 6 0 4 8 9 8 9 7 7 6 4 5 13 9 4 5 6 7 11 10 8 11
12 14 14 8 12 11 10 12 11 9 2 18 6 11 1 5 8 5 7 8 3 2 3 6 8 9 7 7 3 7 4 2 12 1 4 3 6 7 7 12 9 12 11
10 8 6 8 7 8 9 9 11 11 10 9 7 7 6 5 6 3 10 1 10 13 -6 -6 10 7 6 6 6 5 4 12 6 4 3 6 5 7 7 12 14 10 5
5 5 10 9 7 6 6 6 6 7 6 5 5 5 4 6 4 6 5 5 19 -8 -14 8 8 7 6 6 3 6 6 4 5 3 3 7 10 8 12 18 9 6 5
7 4 6 7 7 6 6 7 6 6 5 5 5 5 5 6 7 10 2 13 15 -11 -4 9 7 6 5 6 3 10 3 5 4 3 3 5 13 14 6 11 8 7 3
Height
5773 5776 5779 5783 5788 5792 5794 5797 5801 5802 5804 5804 5805 5806 5806 5808 5808 5811 5813 5815 5816 5818 5820 5819 5821 5820 5821 5822 5823 5822 5822 5821 5821 5819 5818 5816 5814 5812 5810 5808 5806 5804 5802
5768 5771 5774 5779 5783 5786 5789 5793 5796 5799 5800 5799 5800 5801 5802 5803 5804 5806 5809 5811 5812 5813 5815 5816 5818 5818 5818 5818 5818 5818 5817 5817 5816 5814 5812 5810 5808 5806 5805 5803 5800 5798 5796
5761 5765 5771 5775 5779 5782 5786 5788 5791 5794 5795 5794 5796 5797 5798 5799 5800 5802 5804 5805 5807 5810 5810 5812 5813 5813 5813 5813 5813 5813 5812 5810 5809 5807 5805 5803 5801 5799 5798 5796 5794 5791 5789
5756 5760 5767 5773 5776 5779 5782 5784 5786 5789 5788 5789 5790 5791 5792 5793 5794 5796 5798 5801 5803 5805 5806 5808 5808 5808 5808 5807 5807 5806 5805 5803 5801 5800 5798 5796 5794 5793 5791 5788 5786 5784 5782
5754 5760 5764 5769 5773 5775 5778 5779 5780 5782 5782 5784 5784 5785 5786 5787 5788 5790 5794 5797 5799 5801 5802 5802 5802 5803 5803 5801 5800 5799 5798 5796 5794 5792 5790 5788 5787 5786 5784 5781 5778 5776 5773
5754 5758 5762 5765 5768 5770 5772 5773 5775 5776 5777 5777 5778 5779 5781 5782 5784 5786 5789 5792 5795 5796 5796 5797 5797 5798 5796 5794 5794 5793 5791 5789 5787 5785 5783 5781 5779 5777 5775 5772 5769 5766 5763
5751 5754 5757 5760 5763 5764 5765 5768 5770 5770 5770 5771 5772 5774 5775 5777 5779 5781 5784 5787 5789 5791 5792 5792 5792 5792 5790 5787 5787 5786 5784 5782 5780 5778 5776 5773 5771 5769 5766 5763 5760 5756 5753
5750 5752 5753 5755 5757 5759 5761 5762 5763 5764 5765 5765 5767 5768 5771 5774 5773 5775 5778 5781 5784 5786 5786 5786 5786 5785 5782 5781 5779 5777 5775 5774 5772 5770 5769 5766 5763 5760 5756 5753 5750 5746 5743
5746 5747 5748 5750 5752 5754 5756 5757 5758 5758 5759 5761 5762 5765 5765 5769 5770 5772 5774 5777 5778 5780 5781 5780 5779 5778 5775 5772 5770 5769 5766 5765 5763 5761 5758 5757 5755 5752 5747 5742 5738 5735 5731
5740 5741 5743 5745 5746 5748 5750 5751 5752 5753 5755 5758 5757 5758 5761 5763 5764 5768 5770 5771 5772 5773 5773 5772 5771 5769 5766 5764 5762 5760 5758 5756 5754 5752 5750 5747 5744 5740 5736 5733 5728 5723 5718
5733 5737 5738 5740 5742 5744 5746 5746 5747 5748 5750 5754 5754 5755 5756 5757 5760 5762 5763 5765 5765 5764 5764 5762 5761 5759 5757 5755 5754 5752 5749 5746 5744 5742 5739 5735 5731 5727 5723 5719 5715 5711 5707
5727 5730 5733 5734 5736 5738 5740 5741 5742 5744 5746 5748 5751 5752 5752 5753 5755 5756 5757 5758 5756 5755 5755 5753 5752 5751 5748 5745 5743 5742 5739 5737 5735 5731 5728 5724 5721 5716 5711 5706 5702 5696 5691
5723 5725 5728 5730 5731 5733 5733 5734 5738 5740 5741 5743 5744 5747 5747 5748 5748 5750 5751 5752 5749 5749 5746 5744 5742 5740 5737 5736 5734 5732 5730 5726 5723 5719 5717 5713 5709 5704 5699 5693 5688 5683 5676
5723 5724 5726 5727 5730 5731 5731 5731 5733 5736 5737 5738 5740 5741 5741 5742 5741 5742 5743 5742 5740 5738 5736 5734 5732 5730 5728 5725 5724 5721 5719 5716 5712 5709 5706 5701 5696 5691 5685 5678 5672 5666 5661
5720 5722 5724 5726 5728 5728 5729 5729 5731 5733 5732 5734 5736 5736 5735 5735 5734 5734 5732 5732 5730 5729 5727 5725 5722 5719 5717 5715 5712 5710 5707 5705 5701 5697 5692 5687 5682 5676 5670 5664 5658 5651 5645
5719 5720 5721 5721 5722 5723 5723 5723 5725 5725 5725 5726 5727 5727 5727 5727 5725 5725 5723 5722 5720 5718 5716 5715 5713 5710 5707 5704 5702 5699 5695 5692 5688 5684 5679 5674 5668 5662 5655 5649 5642 5635 5628
5713 5713 5713 5714 5714 5714 5715 5715 5717 5717 5717 5718 5717 5717 5717 5717 5716 5714 5712 5711 5709 5708 5705 5704 5702 5700 5696 5692 5690 5687 5683 5679 5675 5671 5664 5659 5653 5646 5639 5631 5624 5617 5610
5705 5705 5705 5705 5706 5706 5706 5705 5706 5707 5707 5709 5709 5707 5707 5705 5702 5702 5702 5701 5699 5698 5695 5691 5689 5687 5684 5683 5676 5674 5670 5665 5660 5655 5649 5643 5636 5629 5621 5613 5606 5599 5591
5701 5699 5699 5699 5698 5697 5695 5695 5697 5698 5699 5699 5698 5697 5697 5693 5692 5691 5691 5689 5688 5685 5682 5680 5678 5676 5672 5667 5663 5658 5654 5650 5644 5638 5633 5626 5619 5612 5603 5595 5587 5579 5570
5694 5693 5692 5690 5690 5688 5686 5683 5685 5688 5689 5688 5686 5686 5686 5684 5683 5680 5680 5678 5676 5674 5671 5669 5666 5661 5656 5652 5648 5643 5639 5632 5627 5621 5616 5608 5601 5592 5583 5574 5565 5556 5548
5685 5684 5684 5683 5681 5680 5678 5676 5676 5678 5679 5677 5675 5675 5674 5673 5673 5671 5669 5667 5665 5661 5658 5656 5652 5648 5643 5638 5634 5628 5623 5617 5611 5604 5597 5588 5582 5574 5565 5555 5545 5536 5526
5674 5674 5674 5673 5673 5672 5671 5670 5670 5670 5669 5668 5668 5667 5666 5664 5663 5662 5660 5656 5654 5650 5647 5643 5638 5633 5629 5624 5618 5612 5606 5600 5594 5587 5577 5570 5561 5555 5544 5534 5525 5514 5504
5664 5665 5664 5663 5664 5663 5662 5661 5661 5660 5660 5659 5658 5657 5656 5654 5652 5650 5647 5644 5640 5636 5632 5628 5623 5619 5613 5608 5601 5595 5588 5582 5574 5566 5560 5553 5542 5534 5525 5515 5504 5494 5485
5655 5655 5654 5654 5654 5654 5653 5652 5651 5649 5647 5647 5646 5644 5642 5640 5638 5636 5633 5629 5625 5621 5617 5613 5608 5603 5597 5591 5584 5576 5569 5563 5556 5547 5538 5533 5522 5516 5507 5495 5483 5473 5464
5646 5646 5646 5645 5644 5643 5643 5641 5639 5638 5636 5635 5633 5631 5629 5626 5624 5621 5618 5615 5611 5606 5601 5597 5592 5586 5580 5572 5565 5558 5550 5543 5536 5528 5517 5510 5500 5496 5489 5477 5463 5450 5442
5635 5635 5635 5634 5633 5632 5631 5630 5628 5625 5623 5621 5618 5616 5613 5611 5609 5605 5601 5599 5596 5591 5586 5580 5574 5568 5561 5554 5546 5539 5531 5522 5514 5507 5497 5492 5480 5468 5472 5459 5444 5430 5419